Rush City, MN

11:08 PM CDT on March 29, 2017 (GMT -0500)
Rush City Regional

Weather History for KROS - May, 2014

Change the Weather History Date:

Tuesday, May 27, 2014

  Actual Average (KCBG) Record (KCBG)
Temperature  
Mean Temperature 60 °F -  
Max Temperature 65 °F 72 °F 95 °F (1969)
Min Temperature 55 °F 49 °F 33 °F (1989)
Degree Days  
Heating Degree Days 5    
Growing Degree Days 10 (Base 50)    
Moisture  
Dew Point 58 °F    
Average Humidity 89    
Maximum Humidity 96    
Minimum Humidity 69    
Precipitation  
Precipitation 2.68 in - - ()
Sea Level Pressure  
Sea Level Pressure 29.95 in    
Wind  
Wind Speed 4 mph (NE)    
Max Wind Speed 12 mph    
Max Gust Speed 17 mph    
Visibility 10 miles    
Events Rain    
Averages and records for this station are not official NWS values.
T = Trace of Precipitation, MM = Missing Value Source: NWS Daily Summary

Daily Weather History Graph

Daily Weather History Graph

Search for Another Location

Airport or City:

Trip Planner

Search our weather history database for the weather conditions in past years. The results will help you decide how hot, cold, wet, or windy it might be!

Date:

Astronomy

May. 27, 2014 Rise Set
Actual Time 5:29 AM CDT 8:49 PM CDT
Civil Twilight 4:52 AM CDT 9:26 PM CDT
Nautical Twilight 4:04 AM CDT 10:13 PM CDT
Astronomical Twilight 3:05 AM CDT 11:14 PM CDT
Moon 4:57 AM CDT (5/27) 7:48 PM CDT (5/27)
Length of Visible Light 16h 33m
Length of Day
15h 20m
Waning Crescent, 1% of the Moon is Illuminated
May 27
Waning Crescent
May 28
New
Jun 5
First Quarter
Jun 12
Full
Jun 19
Last Quarter

Hourly Weather History & Observations

Time (CDT) Temp. Dew Point Humidity Pressure Visibility Wind Dir Wind Speed Gust Speed Precip Events Conditions
12:15 AM 64.6 °F 63.0 °F 94% 29.90 in 10.0 mi Calm Calm - N/A   Overcast
12:35 AM 64.6 °F 63.1 °F 95% 29.90 in 10.0 mi Calm Calm - N/A Rain Light Rain
1:16 AM 65.3 °F 63.9 °F 95% 29.89 in 10.0 mi Calm Calm - N/A   Mostly Cloudy
1:35 AM 65.3 °F 63.5 °F 94% 29.89 in 10.0 mi Calm Calm - N/A   Mostly Cloudy
1:55 AM 64.9 °F 63.5 °F 95% 29.88 in 10.0 mi Calm Calm - N/A   Overcast
2:16 AM 64.8 °F 63.3 °F 95% 29.88 in 10.0 mi Calm Calm - N/A   Overcast
2:35 AM 64.9 °F 63.5 °F 95% 29.88 in 10.0 mi Calm Calm - N/A   Overcast
2:55 AM 65.1 °F 63.5 °F 94% 29.88 in 10.0 mi Calm Calm - N/A   Overcast
3:16 AM 64.8 °F 63.1 °F 94% 29.88 in 10.0 mi NW 3.5 mph - N/A   Overcast
3:35 AM 64.9 °F 63.3 °F 94% 29.89 in 10.0 mi Calm Calm - 0.01 in   Overcast
3:55 AM 64.8 °F 63.3 °F 95% 29.89 in 10.0 mi NW 5.8 mph - 0.06 in   Overcast
4:16 AM 65.1 °F 63.5 °F 94% 29.89 in 10.0 mi NW 3.5 mph - N/A   Overcast
4:35 AM 64.9 °F 63.1 °F 94% 29.89 in 10.0 mi North 5.8 mph - N/A   Overcast
4:55 AM 64.8 °F 63.0 °F 94% 29.89 in 10.0 mi North 4.6 mph - N/A   Overcast
5:16 AM 64.6 °F 62.6 °F 93% 29.90 in 10.0 mi NNE 6.9 mph - N/A   Overcast
5:35 AM 64.4 °F 62.2 °F 93% 29.90 in 10.0 mi NE 6.9 mph - N/A   Overcast
5:55 AM 63.3 °F 60.8 °F 91% 29.91 in 10.0 mi NE 10.4 mph 16.1 mph N/A   Overcast
6:16 AM 61.0 °F 58.6 °F 92% 29.92 in 2.0 mi NE 9.2 mph - 0.80 in Rain Light Rain
6:35 AM 59.7 °F 57.7 °F 93% 29.93 in 5.0 mi NNE 9.2 mph - 1.32 in Rain Light Rain
6:55 AM 58.1 °F 56.3 °F 94% 29.93 in 3.0 mi NNE 11.5 mph 17.3 mph 2.12 in Rain Light Rain
7:15 AM 57.4 °F 55.8 °F 94% 29.94 in 10.0 mi NNE 10.4 mph - 0.06 in Rain Light Rain
7:35 AM 57.2 °F 55.8 °F 95% 29.94 in 10.0 mi NE 10.4 mph - 0.09 in Rain Light Rain
7:55 AM 57.2 °F 55.8 °F 95% 29.94 in 10.0 mi NE 5.8 mph - 0.13 in Rain Light Rain
8:15 AM 57.2 °F 55.9 °F 96% 29.94 in 10.0 mi NE 6.9 mph - 0.02 in Rain Light Rain
8:36 AM 57.2 °F 55.9 °F 96% 29.94 in 10.0 mi NNE 5.8 mph - 0.05 in Rain Light Rain
8:55 AM 57.2 °F 55.9 °F 96% 29.94 in 7.0 mi NE 5.8 mph - 0.13 in Rain Light Rain
9:15 AM 57.2 °F 55.9 °F 96% 29.94 in 10.0 mi NE 5.8 mph - 0.02 in Rain Light Rain
9:35 AM 57.6 °F 56.3 °F 96% 29.94 in 10.0 mi NE 5.8 mph - 0.07 in Rain Light Rain
9:55 AM 57.7 °F 56.5 °F 96% 29.94 in 10.0 mi NE 5.8 mph - 0.10 in Rain Light Rain
10:16 AM 58.1 °F 56.7 °F 95% 29.95 in 10.0 mi Calm Calm - 0.03 in Rain Light Rain
10:35 AM 58.1 °F 56.8 °F 96% 29.95 in 10.0 mi North 8.1 mph - 0.05 in Rain Light Rain
10:55 AM 58.1 °F 57.0 °F 96% 29.96 in 10.0 mi NE 6.9 mph - 0.08 in Rain Light Rain
11:15 AM 58.3 °F 57.2 °F 96% 29.96 in 10.0 mi NNE 6.9 mph - 0.01 in Rain Light Rain
11:36 AM 58.1 °F 57.0 °F 96% 29.98 in 10.0 mi North 9.2 mph - 0.03 in Rain Light Rain
11:55 AM 58.1 °F 56.7 °F 95% 29.98 in 10.0 mi North 9.2 mph - 0.04 in Rain Light Rain
12:16 PM 57.9 °F 56.5 °F 95% 29.99 in 10.0 mi North 9.2 mph - 0.01 in Rain Light Rain
12:35 PM 56.7 °F 55.2 °F 95% 29.99 in 10.0 mi NNE 9.2 mph - 0.01 in   Overcast
12:56 PM 57.2 °F 55.6 °F 94% 29.99 in 10.0 mi NNE 6.9 mph - 0.01 in   Overcast
1:15 PM 58.1 °F 56.5 °F 94% 29.98 in 10.0 mi NE 5.8 mph - N/A   Overcast
1:35 PM 58.5 °F 56.8 °F 94% 29.98 in 10.0 mi NE 8.1 mph - N/A   Overcast
1:55 PM 59.2 °F 57.4 °F 94% 29.98 in 10.0 mi NE 6.9 mph - N/A   Overcast
2:15 PM 59.7 °F 57.6 °F 93% 29.98 in 10.0 mi NNE 6.9 mph - 0.01 in   Overcast
2:35 PM 60.1 °F 57.9 °F 93% 29.98 in 10.0 mi NNE 8.1 mph - 0.01 in   Overcast
2:55 PM 60.1 °F 57.7 °F 92% 29.99 in 10.0 mi NNE 10.4 mph - 0.01 in   Overcast
3:15 PM 60.1 °F 57.4 °F 91% 29.99 in 10.0 mi NNE 9.2 mph - N/A   Overcast
3:35 PM 61.3 °F 58.1 °F 89% 29.99 in 10.0 mi NE 8.1 mph - N/A   Overcast
4:15 PM 63.0 °F 58.3 °F 85% 29.98 in 10.0 mi NE 6.9 mph 16.1 mph N/A   Mostly Cloudy
4:35 PM 63.9 °F 58.5 °F 83% 29.98 in 10.0 mi ENE 8.1 mph - N/A   Scattered Clouds
4:56 PM 64.4 °F 58.3 °F 80% 29.98 in 10.0 mi ENE 9.2 mph - N/A   Clear
5:15 PM 64.4 °F 57.9 °F 79% 29.98 in 10.0 mi NE 9.2 mph - N/A   Scattered Clouds
5:35 PM 64.6 °F 57.7 °F 78% 29.98 in 10.0 mi NE 8.1 mph - N/A   Scattered Clouds
5:56 PM 64.8 °F 57.9 °F 78% 29.98 in 10.0 mi ENE 8.1 mph - N/A   Clear
6:15 PM 64.9 °F 57.6 °F 77% 29.99 in 10.0 mi NE 5.8 mph - N/A   Scattered Clouds
6:35 PM 64.6 °F 57.9 °F 79% 29.99 in 10.0 mi NE 5.8 mph - N/A   Scattered Clouds
6:55 PM 64.8 °F 57.6 °F 77% 29.98 in 10.0 mi NE 5.8 mph - N/A   Clear
7:15 PM 65.1 °F 56.8 °F 75% 29.98 in 10.0 mi NE 4.6 mph - N/A   Clear
7:35 PM 64.4 °F 57.2 °F 77% 29.98 in 10.0 mi NE 5.8 mph - N/A   Clear
7:55 PM 63.7 °F 57.6 °F 80% 29.98 in 10.0 mi ENE 4.6 mph - N/A   Clear
8:15 PM 63.5 °F 58.1 °F 83% 29.98 in 10.0 mi East 3.5 mph - N/A   Clear
8:35 PM 63.0 °F 57.2 °F 81% 29.99 in 10.0 mi ENE 3.5 mph - N/A   Clear
8:55 PM 61.9 °F 55.6 °F 80% 29.99 in 10.0 mi ENE 4.6 mph - N/A   Scattered Clouds
9:15 PM 61.2 °F 53.6 °F 76% 29.99 in 10.0 mi ENE 5.8 mph - N/A   Scattered Clouds
9:35 PM 60.1 °F 52.7 °F 77% 29.99 in 10.0 mi ENE 5.8 mph - N/A   Scattered Clouds
9:55 PM 59.4 °F 51.1 °F 74% 30.00 in 10.0 mi NE 4.6 mph - N/A   Scattered Clouds
10:15 PM 59.0 °F 49.5 °F 71% 30.01 in 10.0 mi North 4.6 mph - N/A   Scattered Clouds
10:35 PM 56.8 °F 49.6 °F 77% 30.01 in 10.0 mi NNE 5.8 mph - N/A   Scattered Clouds
10:55 PM 58.1 °F 48.0 °F 69% 30.01 in 10.0 mi NNE 4.6 mph - N/A   Scattered Clouds
11:15 PM 55.9 °F 47.8 °F 74% 30.02 in 10.0 mi NNE 4.6 mph - N/A   Scattered Clouds
11:35 PM 55.0 °F 47.3 °F 75% 30.02 in 10.0 mi North 4.6 mph - N/A   Mostly Cloudy
11:55 PM 55.0 °F 46.9 °F 74% 30.03 in 10.0 mi NNE 4.6 mph - N/A   Mostly Cloudy